Weather in Srednyaya Usva

Russia / Perm Krai     58°59′50″N   58°55′38″E
temp.,
°C
wind,
m/s
gust,
m/s
humid.,
%
clouds,
%
prec.,
mm/h
press.,
hPa
HPBL,
m
20 september, mon
mon2023:00−1nw6128647 0.1 1018771
02:00−2nw4109229 0.0 1020493
05:00−3nw279599 0.0 1022224
08:00−1wnw269053 0.0 1024261
11:00+4nw336964 0.0 1024794
14:00+4nw236599 0.0 10261027
17:00+4nw2470100 0.0 1027491
20:00−1wnw21935 0.0 102912
21 september, tue
tue2123:00−2w11945 0.0 103111
02:00−2wnw11945 0.0 103111
05:00−3w22955 0.0 103022
08:00−1w269116 0.0 1029170
11:00+4wnw58625 0.0 1026634
14:00+6nw56538 0.0 1025885
17:00+5nw476057 0.0 1025837
20:000wnw258730 0.0 1025105
22 september, wed
wed2223:00−2wnw11955 0.0 102510
02:00−2wnw119551 0.0 102510
05:00−2w1193100 0.0 102510
08:000wnw008552 0.0 102529
11:00+6ese225826 0.0 1024639
14:00+8e225553 0.0 10241140
17:00+7e2264100 0.0 1025537
20:00+4e2685100 0.0 1027201
23 september, thu
thu2323:00+3ene1195100 0.0 102840
02:00+1ene11965 0.0 102911
05:000ene11965 0.0 103010
08:00+1e11935 0.0 103125
11:00+6ese23695 0.0 1031708
14:00+8se23575 0.0 1030965
17:00+8sse22605 0.0 1030913
20:00+3s11885 0.0 103110
24 september, fri
fri2423:00+1s22935 0.0 103218
02:00+1ssw11925 0.0 103110
05:00+1sw11915 0.0 103110
08:00+2sw11855 0.0 103114
11:00+10sw12566 0.0 1029449
14:00+13wsw125249 0.0 1028965
17:00+13sw126110 0.0 1028398
20:00+6wsw119026 0.0 102910